Location: Brad
(46.1333°N, 22.7833°E)
Time: 11:26:04
(UTC+00:00)

Cosmos 2278 Rocket - Pass Details

Date: 03 February 2023
Orbit: 841 x 845 km, 71.0° (Epoch: 21 March)

Event Time Altitude Azimuth Distance (km) Brightness Sun altitude
Rises 18:13:44 0° 337° (NNW) 3,416 5.7 -27.5°
Reaches altitude 10° 18:16:18 10° 343° (NNW) 2,476 4.9 -27.9°
Enters shadow 18:19:32 31° 5° (N) 1,445 3.3 -28.5°
